Time,TemperatureF,DewpointF,PressureIn,WindDirection,WindDirectionDegrees,WindSpeedMPH,WindSpeedGustMPH,Humidity,HourlyPrecipIn,Conditions,Clouds,dailyrainin,SoftwareType,DateUTC
2013-11-07 00:09:00,57.0,55.0,30.06,SSW,203,6.0,7.0,91,0.00,,,0.00,weatherlink.com 1.10,2013-11-07 05:09:00,
2013-11-07 00:24:00,57.0,55.0,30.06,SW,231,1.0,9.0,91,0.00,,,0.00,weatherlink.com 1.10,2013-11-07 05:24:00,
2013-11-07 00:39:00,57.0,55.0,30.05,SSW,201,5.0,6.0,91,0.00,,,0.00,weatherlink.com 1.10,2013-11-07 05:39:00,
2013-11-07 00:54:00,57.1,55.0,30.04,SSE,150,2.0,7.0,92,0.00,,,0.00,weatherlink.com 1.10,2013-11-07 05:54:00,
2013-11-07 01:09:00,57.3,55.0,30.04,SW,217,2.0,7.0,92,0.00,,,0.00,weatherlink.com 1.10,2013-11-07 06:09:00,
2013-11-07 01:25:00,57.6,55.0,30.03,South,191,2.0,12.0,92,0.00,,,0.00,weatherlink.com 1.10,2013-11-07 06:25:00,
2013-11-07 01:40:00,57.7,55.0,30.02,South,190,11.0,11.0,92,0.00,,,0.00,weatherlink.com 1.10,2013-11-07 06:40:00,
2013-11-07 01:55:00,57.9,56.0,30.01,SW,226,4.0,10.0,93,0.00,,,0.00,weatherlink.com 1.10,2013-11-07 06:55:00,
2013-11-07 02:10:00,-999.0,-99.9,30.01,North,-999,-999.0,-999.0,-999,0.00,,,0.00,weatherlink.com 1.10,2013-11-07 07:10:00,
2013-11-07 02:25:00,-999.0,-99.9,30.00,North,-999,-999.0,-999.0,-999,0.00,,,0.00,weatherlink.com 1.10,2013-11-07 07:25:00,
2013-11-07 02:40:00,-999.0,-99.9,29.99,North,-999,-999.0,-999.0,-999,0.00,,,0.00,weatherlink.com 1.10,2013-11-07 07:40:00,
2013-11-07 02:55:00,-999.0,-99.9,29.98,North,-999,-999.0,-999.0,-999,0.00,,,0.00,weatherlink.com 1.10,2013-11-07 07:55:00,
2013-11-07 03:10:00,-999.0,-99.9,29.98,North,-999,-999.0,-999.0,-999,0.00,,,0.00,weatherlink.com 1.10,2013-11-07 08:10:00,
2013-11-07 03:25:00,-999.0,-99.9,29.97,North,-999,-999.0,-999.0,-999,0.00,,,0.00,weatherlink.com 1.10,2013-11-07 08:25:00,
2013-11-07 03:40:00,-999.0,-99.9,29.97,North,-999,-999.0,-999.0,-999,0.00,,,0.00,weatherlink.com 1.10,2013-11-07 08:40:00,
2013-11-07 03:55:00,-999.0,-99.9,29.96,North,-999,-999.0,-999.0,-999,0.00,,,0.00,weatherlink.com 1.10,2013-11-07 08:55:00,
2013-11-07 04:10:00,-999.0,-99.9,29.96,North,-999,-999.0,-999.0,-999,0.00,,,0.00,weatherlink.com 1.10,2013-11-07 09:10:00,
2013-11-07 04:25:00,-999.0,-99.9,29.95,North,-999,-999.0,-999.0,-999,0.00,,,0.00,weatherlink.com 1.10,2013-11-07 09:25:00,
2013-11-07 04:40:00,-999.0,-99.9,29.93,North,-999,-999.0,-999.0,-999,0.00,,,0.00,weatherlink.com 1.10,2013-11-07 09:40:00,
2013-11-07 04:55:00,-999.0,-99.9,29.93,North,-999,-999.0,-999.0,-999,0.00,,,0.00,weatherlink.com 1.10,2013-11-07 09:55:00,
2013-11-07 05:11:00,-999.0,-99.9,29.92,North,-999,-999.0,-999.0,-999,0.00,,,0.00,weatherlink.com 1.10,2013-11-07 10:11:00,
2013-11-07 05:26:00,-999.0,-99.9,29.91,North,-999,-999.0,-999.0,-999,0.00,,,0.00,weatherlink.com 1.10,2013-11-07 10:26:00,
2013-11-07 05:41:00,-999.0,-99.9,29.91,North,-999,-999.0,-999.0,-999,0.00,,,0.00,weatherlink.com 1.10,2013-11-07 10:41:00,
2013-11-07 05:56:00,-999.0,-99.9,29.89,North,-999,-999.0,-999.0,-999,0.00,,,0.00,weatherlink.com 1.10,2013-11-07 10:56:00,
2013-11-07 06:11:00,-999.0,-99.9,29.88,North,-999,-999.0,-999.0,-999,0.00,,,0.00,weatherlink.com 1.10,2013-11-07 11:11:00,
2013-11-07 06:26:00,-999.0,-99.9,29.87,North,-999,-999.0,-999.0,-999,0.00,,,0.00,weatherlink.com 1.10,2013-11-07 11:26:00,
2013-11-07 06:41:00,-999.0,-99.9,29.86,North,-999,-999.0,-999.0,-999,0.00,,,0.00,weatherlink.com 1.10,2013-11-07 11:41:00,
2013-11-07 06:56:00,-999.0,-99.9,29.86,North,-999,-999.0,-999.0,-999,0.00,,,0.00,weatherlink.com 1.10,2013-11-07 11:56:00,
2013-11-07 07:11:00,-999.0,-99.9,29.84,North,-999,-999.0,-999.0,-999,0.00,,,0.00,weatherlink.com 1.10,2013-11-07 12:11:00,
2013-11-07 07:26:00,62.5,61.0,29.84,SW,224,8.0,19.0,95,0.00,,,0.00,weatherlink.com 1.10,2013-11-07 12:26:00,
2013-11-07 07:41:00,63.2,62.0,29.83,South,191,8.0,17.0,94,0.00,,,0.00,weatherlink.com 1.10,2013-11-07 12:41:00,
2013-11-07 07:56:00,63.0,61.0,29.83,ENE,75,3.0,16.0,94,0.01,,,0.01,weatherlink.com 1.10,2013-11-07 12:56:00,
2013-11-07 08:11:00,62.8,61.0,29.82,South,170,5.0,19.0,95,0.03,,,0.03,weatherlink.com 1.10,2013-11-07 13:11:00,
2013-11-07 08:26:00,62.8,61.0,29.82,SW,214,5.0,18.0,95,0.03,,,0.03,weatherlink.com 1.10,2013-11-07 13:26:00,
2013-11-07 08:41:00,62.0,61.0,29.84,SSW,203,6.0,16.0,95,0.14,,,0.14,weatherlink.com 1.10,2013-11-07 13:41:00,
2013-11-07 08:56:00,61.4,60.0,29.83,West,271,5.0,14.0,96,0.21,,,0.22,weatherlink.com 1.10,2013-11-07 13:56:00,
2013-11-07 09:11:00,61.1,60.0,29.82,North,1,3.0,13.0,96,0.23,,,0.26,weatherlink.com 1.10,2013-11-07 14:11:00,
2013-11-07 09:26:00,61.0,60.0,29.82,West,267,2.0,10.0,96,0.30,,,0.33,weatherlink.com 1.10,2013-11-07 14:26:00,
2013-11-07 09:41:00,61.1,60.0,29.81,NNW,328,2.0,10.0,97,0.35,,,0.50,weatherlink.com 1.10,2013-11-07 14:41:00,
2013-11-07 09:56:00,62.0,61.0,29.79,ESE,122,6.0,13.0,97,0.31,,,0.54,weatherlink.com 1.10,2013-11-07 14:56:00,
2013-11-07 10:12:00,62.2,61.0,29.79,NW,326,2.0,13.0,97,0.30,,,0.56,weatherlink.com 1.10,2013-11-07 15:12:00,
2013-11-07 10:27:00,61.9,61.0,29.78,ENE,70,2.0,8.0,97,0.23,,,0.56,weatherlink.com 1.10,2013-11-07 15:27:00,
2013-11-07 10:42:00,62.3,62.0,29.77,WNW,295,7.0,11.0,97,0.08,,,0.59,weatherlink.com 1.10,2013-11-07 15:42:00,
2013-11-07 10:57:00,61.9,61.0,29.76,ESE,120,0.0,12.0,97,0.07,,,0.61,weatherlink.com 1.10,2013-11-07 15:57:00,
2013-11-07 11:12:00,62.3,62.0,29.74,West,270,3.0,14.0,98,0.07,,,0.63,weatherlink.com 1.10,2013-11-07 16:12:00,
2013-11-07 11:27:00,62.4,62.0,29.73,SW,217,2.0,19.0,97,0.09,,,0.65,weatherlink.com 1.10,2013-11-07 16:27:00,
2013-11-07 11:42:00,62.4,62.0,29.73,SSW,207,2.0,16.0,97,0.10,,,0.69,weatherlink.com 1.10,2013-11-07 16:42:00,
2013-11-07 11:57:00,62.0,61.0,29.72,WSW,256,8.0,10.0,97,0.12,,,0.73,weatherlink.com 1.10,2013-11-07 16:57:00,
2013-11-07 12:12:00,61.9,61.0,29.71,WSW,245,5.0,11.0,97,0.12,,,0.75,weatherlink.com 1.10,2013-11-07 17:12:00,
2013-11-07 12:27:00,61.8,61.0,29.70,NNW,331,1.0,7.0,97,0.11,,,0.77,weatherlink.com 1.10,2013-11-07 17:27:00,
2013-11-07 12:42:00,61.9,61.0,29.69,WSW,245,4.0,11.0,97,0.08,,,0.78,weatherlink.com 1.10,2013-11-07 17:42:00,
2013-11-07 12:57:00,61.7,61.0,29.69,SSW,192,3.0,10.0,97,0.05,,,0.78,weatherlink.com 1.10,2013-11-07 17:57:00,
2013-11-07 13:12:00,61.1,60.0,29.70,North,11,1.0,20.0,97,0.04,,,0.79,weatherlink.com 1.10,2013-11-07 18:12:00,
2013-11-07 13:27:00,60.6,60.0,29.69,South,186,4.0,12.0,97,0.07,,,0.84,weatherlink.com 1.10,2013-11-07 18:27:00,
2013-11-07 13:42:00,60.3,60.0,29.68,West,264,6.0,11.0,97,0.09,,,0.87,weatherlink.com 1.10,2013-11-07 18:42:00,
2013-11-07 13:57:00,60.2,59.0,29.68,SSE,160,1.0,11.0,97,0.11,,,0.89,weatherlink.com 1.10,2013-11-07 18:57:00,
2013-11-07 14:12:00,60.2,59.0,29.67,SW,231,4.0,7.0,97,0.10,,,0.90,weatherlink.com 1.10,2013-11-07 19:12:00,
2013-11-07 14:27:00,59.9,59.0,29.67,North,354,2.0,9.0,97,0.10,,,0.94,weatherlink.com 1.10,2013-11-07 19:27:00,
2013-11-07 14:42:00,59.5,59.0,29.67,SSW,210,6.0,8.0,97,0.11,,,0.98,weatherlink.com 1.10,2013-11-07 19:42:00,
2013-11-07 14:57:00,59.4,59.0,29.67,South,191,0.0,10.0,97,0.13,,,1.02,weatherlink.com 1.10,2013-11-07 19:57:00,
2013-11-07 15:12:00,59.1,58.0,29.67,West,267,2.0,8.0,97,0.14,,,1.04,weatherlink.com 1.10,2013-11-07 20:12:00,
2013-11-07 15:27:00,-999.0,-99.9,29.67,North,-999,-999.0,-999.0,-999,0.10,,,1.04,weatherlink.com 1.10,2013-11-07 20:27:00,
2013-11-07 15:42:00,-999.0,-99.9,29.65,North,-999,-999.0,-999.0,-999,0.06,,,1.04,weatherlink.com 1.10,2013-11-07 20:42:00,
2013-11-07 15:57:00,-999.0,-99.9,29.67,North,-999,-999.0,-999.0,-999,0.02,,,1.04,weatherlink.com 1.10,2013-11-07 20:57:00,
2013-11-07 16:12:00,-999.0,-99.9,29.68,North,-999,-999.0,-999.0,-999,0.00,,,1.04,weatherlink.com 1.10,2013-11-07 21:12:00,
2013-11-07 16:43:00,-999.0,-99.9,29.68,North,-999,-999.0,-999.0,-999,0.00,,,0.00,weatherlink.com 1.10,2013-11-07 21:43:00,
2013-11-07 16:58:00,-999.0,-99.9,29.68,North,-999,-999.0,-999.0,-999,0.00,,,0.00,weatherlink.com 1.10,2013-11-07 21:58:00,
2013-11-07 17:28:00,-999.0,-99.9,29.69,North,-999,-999.0,-999.0,-999,0.00,,,0.00,weatherlink.com 1.10,2013-11-07 22:28:00,
2013-11-07 17:43:00,-999.0,-99.9,29.70,North,-999,-999.0,-999.0,-999,0.00,,,0.00,weatherlink.com 1.10,2013-11-07 22:43:00,
2013-11-07 17:58:00,-999.0,-99.9,29.69,North,-999,-999.0,-999.0,-999,0.00,,,0.00,weatherlink.com 1.10,2013-11-07 22:58:00,
2013-11-07 18:13:00,-999.0,-99.9,29.69,North,-999,-999.0,-999.0,-999,0.00,,,0.00,weatherlink.com 1.10,2013-11-07 23:13:00,
2013-11-07 18:28:00,-999.0,-99.9,29.69,North,-999,-999.0,-999.0,-999,0.00,,,0.00,weatherlink.com 1.10,2013-11-07 23:28:00,
2013-11-07 18:43:00,-999.0,-99.9,29.69,North,-999,-999.0,-999.0,-999,0.00,,,0.00,weatherlink.com 1.10,2013-11-07 23:43:00,
2013-11-07 18:58:00,-999.0,-99.9,29.69,North,-999,-999.0,-999.0,-999,0.00,,,0.00,weatherlink.com 1.10,2013-11-07 23:58:00,
2013-11-07 19:13:00,-999.0,-99.9,29.70,North,-999,-999.0,-999.0,-999,0.00,,,0.00,weatherlink.com 1.10,2013-11-08 00:13:00,
2013-11-07 19:28:00,-999.0,-99.9,29.71,North,-999,-999.0,-999.0,-999,0.00,,,0.00,weatherlink.com 1.10,2013-11-08 00:28:00,
2013-11-07 19:43:00,-999.0,-99.9,29.70,North,-999,-999.0,-999.0,-999,0.00,,,0.00,weatherlink.com 1.10,2013-11-08 00:43:00,
2013-11-07 19:58:00,-999.0,-99.9,29.71,North,-999,-999.0,-999.0,-999,0.00,,,0.00,weatherlink.com 1.10,2013-11-08 00:58:00,
2013-11-07 20:14:00,-999.0,-99.9,29.71,North,-999,-999.0,-999.0,-999,0.00,,,0.00,weatherlink.com 1.10,2013-11-08 01:14:00,
2013-11-07 20:29:00,-999.0,-99.9,29.71,North,-999,-999.0,-999.0,-999,0.00,,,0.00,weatherlink.com 1.10,2013-11-08 01:29:00,
2013-11-07 20:44:00,-999.0,-99.9,29.72,North,-999,-999.0,-999.0,-999,0.00,,,0.00,weatherlink.com 1.10,2013-11-08 01:44:00,
2013-11-07 20:59:00,-999.0,-99.9,29.72,North,-999,-999.0,-999.0,-999,0.00,,,0.00,weatherlink.com 1.10,2013-11-08 01:59:00,
2013-11-07 21:14:00,-999.0,-99.9,29.73,North,-999,-999.0,-999.0,-999,0.00,,,0.00,weatherlink.com 1.10,2013-11-08 02:14:00,
2013-11-07 21:29:00,-999.0,-99.9,29.73,North,-999,-999.0,-999.0,-999,0.00,,,0.00,weatherlink.com 1.10,2013-11-08 02:29:00,
2013-11-07 21:44:00,-999.0,-99.9,29.74,North,-999,-999.0,-999.0,-999,0.00,,,0.00,weatherlink.com 1.10,2013-11-08 02:44:00,
2013-11-07 21:59:00,-999.0,-99.9,29.75,North,-999,-999.0,-999.0,-999,0.00,,,0.00,weatherlink.com 1.10,2013-11-08 02:59:00,
2013-11-07 22:14:00,-999.0,-99.9,29.75,North,-999,-999.0,-999.0,-999,0.00,,,0.00,weatherlink.com 1.10,2013-11-08 03:14:00,
2013-11-07 22:29:00,-999.0,-99.9,29.75,North,-999,-999.0,-999.0,-999,0.00,,,0.00,weatherlink.com 1.10,2013-11-08 03:29:00,
2013-11-07 22:44:00,-999.0,-99.9,29.75,North,-999,-999.0,-999.0,-999,0.00,,,0.00,weatherlink.com 1.10,2013-11-08 03:44:00,
2013-11-07 22:59:00,-999.0,-99.9,29.75,North,-999,-999.0,-999.0,-999,0.00,,,0.00,weatherlink.com 1.10,2013-11-08 03:59:00,
2013-11-07 23:14:00,-999.0,-99.9,29.75,North,-999,-999.0,-999.0,-999,0.00,,,0.00,weatherlink.com 1.10,2013-11-08 04:14:00,
2013-11-07 23:30:00,-999.0,-99.9,29.76,North,-999,-999.0,-999.0,-999,0.00,,,0.00,weatherlink.com 1.10,2013-11-08 04:30:00,
2013-11-07 23:45:00,-999.0,-99.9,29.77,North,-999,-999.0,-999.0,-999,0.00,,,0.00,weatherlink.com 1.10,2013-11-08 04:45:00,